Year,Month,Day,Hour,Minute,Value (Times are PST for temperature in C)
2014,11,18,00,00,-0.60
2014,11,18,00,01,-0.60
2014,11,18,00,02,-0.60
2014,11,18,00,03,-0.60
2014,11,18,00,04,-0.60
2014,11,18,00,05,-0.70
2014,11,18,00,06,-0.70
2014,11,18,00,07,-0.70
2014,11,18,00,08,-0.70
2014,11,18,00,09,-0.70
2014,11,18,00,10,-0.70
2014,11,18,00,11,-0.70
2014,11,18,00,12,-0.70
2014,11,18,00,13,-0.70
2014,11,18,00,14,-0.70
2014,11,18,00,15,-0.70
2014,11,18,00,16,-0.70
2014,11,18,00,17,-0.70
2014,11,18,00,18,-0.70
2014,11,18,00,19,-0.70
2014,11,18,00,20,-0.70
2014,11,18,00,21,-0.70
2014,11,18,00,22,-0.70
2014,11,18,00,23,-0.70
2014,11,18,00,24,-0.70
2014,11,18,00,25,-0.70
2014,11,18,00,26,-0.70
2014,11,18,00,27,-0.80
2014,11,18,00,28,-0.80
2014,11,18,00,29,-0.80
2014,11,18,00,30,-0.80
2014,11,18,00,31,-0.80
2014,11,18,00,32,-0.90
2014,11,18,00,33,-0.90
2014,11,18,00,34,-0.90
2014,11,18,00,35,-0.90
2014,11,18,00,36,-0.90
2014,11,18,00,37,-0.90
2014,11,18,00,38,-0.90
2014,11,18,00,39,-0.90
2014,11,18,00,40,-0.90
2014,11,18,00,41,-0.90
2014,11,18,00,42,-0.90
2014,11,18,00,43,-0.90
2014,11,18,00,44,-0.90
2014,11,18,00,45,-0.90
2014,11,18,00,46,-0.90
2014,11,18,00,47,-1.00
2014,11,18,00,48,-1.00
2014,11,18,00,49,-1.00
2014,11,18,00,50,-1.00
2014,11,18,00,51,-0.90
2014,11,18,00,52,-0.90
2014,11,18,00,53,-0.90
2014,11,18,00,54,-1.00
2014,11,18,00,55,-1.00
2014,11,18,00,56,-1.00
2014,11,18,00,57,-1.00
2014,11,18,00,58,-1.00
2014,11,18,00,59,-1.10
2014,11,18,01,00,-1.10
2014,11,18,01,01,-1.10
2014,11,18,01,02,-1.10
2014,11,18,01,03,-1.10
2014,11,18,01,04,-1.10
2014,11,18,01,05,-1.00
2014,11,18,01,06,-0.90
2014,11,18,01,07,-0.90
2014,11,18,01,08,-0.90
2014,11,18,01,09,-0.80
2014,11,18,01,10,-0.80
2014,11,18,01,11,-0.80
2014,11,18,01,12,-0.80
2014,11,18,01,13,-0.70
2014,11,18,01,14,-0.70
2014,11,18,01,15,-0.70
2014,11,18,01,16,-0.70
2014,11,18,01,17,-0.70
2014,11,18,01,18,-0.60
2014,11,18,01,19,-0.60
2014,11,18,01,20,-0.60
2014,11,18,01,21,-0.60
2014,11,18,01,22,-0.60
2014,11,18,01,23,-0.60
2014,11,18,01,24,-0.50
2014,11,18,01,25,-0.50
2014,11,18,01,26,-0.40
2014,11,18,01,27,-0.40
2014,11,18,01,28,-0.40
2014,11,18,01,29,-0.40
2014,11,18,01,30,-0.40
2014,11,18,01,31,-0.50
2014,11,18,01,32,-0.50
2014,11,18,01,33,-0.50
2014,11,18,01,34,-0.60
2014,11,18,01,35,-0.60
2014,11,18,01,36,-0.60
2014,11,18,01,37,-0.60
2014,11,18,01,38,-0.60
2014,11,18,01,39,-0.60
2014,11,18,01,40,-0.60
2014,11,18,01,41,-0.60
2014,11,18,01,42,-0.60
2014,11,18,01,43,-0.60
2014,11,18,01,44,-0.50
2014,11,18,01,45,-0.50
2014,11,18,01,46,-0.50
2014,11,18,01,47,-0.50
2014,11,18,01,48,-0.60
2014,11,18,01,49,-0.60
2014,11,18,01,50,-0.60
2014,11,18,01,51,-0.60
2014,11,18,01,52,-0.60
2014,11,18,01,53,-0.60
2014,11,18,01,54,-0.60
2014,11,18,01,55,-0.60
2014,11,18,01,56,-0.60
2014,11,18,01,57,-0.60
2014,11,18,01,58,-0.50
2014,11,18,01,59,-0.50
2014,11,18,02,00,-0.40
2014,11,18,02,01,-0.40
2014,11,18,02,02,-0.30
2014,11,18,02,03,-0.30
2014,11,18,02,04,-0.20
2014,11,18,02,05,-0.20
2014,11,18,02,06,-0.10
2014,11,18,02,07,-0.10
2014,11,18,02,08,-0.10
2014,11,18,02,09,0.00
2014,11,18,02,10,0.00
2014,11,18,02,11,0.00
2014,11,18,02,12,0.00
2014,11,18,02,13,0.00
2014,11,18,02,14,0.00
2014,11,18,02,15,0.00
2014,11,18,02,16,0.00
2014,11,18,02,17,0.00
2014,11,18,02,18,0.00
2014,11,18,02,19,-0.10
2014,11,18,02,20,-0.10
2014,11,18,02,21,-0.10
2014,11,18,02,22,-0.20
2014,11,18,02,23,-0.20
2014,11,18,02,24,-0.20
2014,11,18,02,25,-0.20
2014,11,18,02,26,-0.20
2014,11,18,02,27,-0.20
2014,11,18,02,28,-0.20
2014,11,18,02,29,-0.20
2014,11,18,02,30,-0.20
2014,11,18,02,31,-0.20
2014,11,18,02,32,-0.20
2014,11,18,02,33,-0.20
2014,11,18,02,34,-0.20
2014,11,18,02,35,-0.10
2014,11,18,02,36,0.00
2014,11,18,02,37,0.10
2014,11,18,02,38,0.20
2014,11,18,02,39,0.20
2014,11,18,02,40,0.20
2014,11,18,02,41,0.30
2014,11,18,02,42,0.40
2014,11,18,02,43,0.50
2014,11,18,02,44,0.50
2014,11,18,02,45,0.60
2014,11,18,02,46,0.60
2014,11,18,02,47,0.60
2014,11,18,02,48,0.60
2014,11,18,02,49,0.60
2014,11,18,02,50,0.60
2014,11,18,02,51,0.60
2014,11,18,02,52,0.60
2014,11,18,02,53,0.60
2014,11,18,02,54,0.50
2014,11,18,02,55,0.60
2014,11,18,02,56,0.60
2014,11,18,02,57,0.60
2014,11,18,02,58,0.60
2014,11,18,02,59,0.60
2014,11,18,03,00,0.60
2014,11,18,03,01,0.60
2014,11,18,03,02,0.50
2014,11,18,03,03,0.60
2014,11,18,03,04,0.60
2014,11,18,03,05,0.60
2014,11,18,03,06,0.70
2014,11,18,03,07,0.70
2014,11,18,03,08,0.80
2014,11,18,03,09,0.80
2014,11,18,03,10,0.80
2014,11,18,03,11,0.80
2014,11,18,03,12,0.80
2014,11,18,03,13,0.80
2014,11,18,03,14,0.80
2014,11,18,03,15,0.80
2014,11,18,03,16,0.80
2014,11,18,03,17,0.80
2014,11,18,03,18,0.80
2014,11,18,03,19,0.90
2014,11,18,03,20,0.90
2014,11,18,03,21,0.90
2014,11,18,03,22,0.90
2014,11,18,03,23,0.90
2014,11,18,03,24,0.90
2014,11,18,03,25,0.90
2014,11,18,03,26,0.90
2014,11,18,03,27,0.90
2014,11,18,03,28,0.90
2014,11,18,03,29,0.90
2014,11,18,03,30,0.90
2014,11,18,03,31,0.80
2014,11,18,03,32,0.80
2014,11,18,03,33,0.80
2014,11,18,03,34,0.70
2014,11,18,03,35,0.70
2014,11,18,03,36,0.70
2014,11,18,03,37,0.70
2014,11,18,03,38,0.70
2014,11,18,03,39,0.70
2014,11,18,03,40,0.70
2014,11,18,03,41,0.70
2014,11,18,03,42,0.70
2014,11,18,03,43,0.70
2014,11,18,03,44,0.70
2014,11,18,03,45,0.70
2014,11,18,03,46,0.70
2014,11,18,03,47,0.80
2014,11,18,03,48,0.80
2014,11,18,03,49,0.80
2014,11,18,03,50,0.80
2014,11,18,03,51,0.80
2014,11,18,03,52,0.80
2014,11,18,03,53,0.80
2014,11,18,03,54,0.80
2014,11,18,03,55,0.80
2014,11,18,03,56,0.80
2014,11,18,03,57,0.80
2014,11,18,03,58,0.80
2014,11,18,03,59,0.80
2014,11,18,04,00,0.80
2014,11,18,04,01,0.70
2014,11,18,04,02,0.70
2014,11,18,04,03,0.70
2014,11,18,04,04,0.70
2014,11,18,04,05,0.80
2014,11,18,04,06,0.80
2014,11,18,04,07,0.80
2014,11,18,04,08,0.80
2014,11,18,04,09,0.90
2014,11,18,04,10,0.90
2014,11,18,04,11,0.90
2014,11,18,04,12,0.90
2014,11,18,04,13,1.00
2014,11,18,04,14,1.00
2014,11,18,04,15,1.00
2014,11,18,04,16,1.10
2014,11,18,04,17,1.10
2014,11,18,04,18,1.10
2014,11,18,04,19,1.10
2014,11,18,04,20,1.20
2014,11,18,04,21,1.20
2014,11,18,04,22,1.20
2014,11,18,04,23,1.30
2014,11,18,04,24,1.30
2014,11,18,04,25,1.30
2014,11,18,04,26,1.40
2014,11,18,04,27,1.40
2014,11,18,04,28,1.50
2014,11,18,04,29,1.50
2014,11,18,04,30,1.60
2014,11,18,04,31,1.60
2014,11,18,04,32,1.60
2014,11,18,04,33,1.60
2014,11,18,04,34,1.50
2014,11,18,04,35,1.50
2014,11,18,04,36,1.50
2014,11,18,04,37,1.50
2014,11,18,04,38,1.40
2014,11,18,04,39,1.40
2014,11,18,04,40,1.40
2014,11,18,04,41,1.40
2014,11,18,04,42,1.40
2014,11,18,04,43,1.40
2014,11,18,04,44,1.40
2014,11,18,04,45,1.40
2014,11,18,04,46,1.50
2014,11,18,04,47,1.50
2014,11,18,04,48,1.50
2014,11,18,04,49,1.50
2014,11,18,04,50,1.60
2014,11,18,04,51,1.60
2014,11,18,04,52,1.60
2014,11,18,04,53,1.60
2014,11,18,04,54,1.60
2014,11,18,04,55,1.70
2014,11,18,04,56,1.70
2014,11,18,04,57,1.80
2014,11,18,04,58,1.80
2014,11,18,04,59,1.80
2014,11,18,05,00,1.80
2014,11,18,05,01,1.80
2014,11,18,05,02,1.80
2014,11,18,05,03,1.80
2014,11,18,05,04,1.70
2014,11,18,05,05,1.70
2014,11,18,05,06,1.70
2014,11,18,05,07,1.70
2014,11,18,05,08,1.70
2014,11,18,05,09,1.60
2014,11,18,05,10,1.60
2014,11,18,05,11,1.70
2014,11,18,05,12,1.70
2014,11,18,05,13,1.70
2014,11,18,05,14,1.60
2014,11,18,05,15,1.60
2014,11,18,05,16,1.60
2014,11,18,05,17,1.60
2014,11,18,05,18,1.60
2014,11,18,05,19,1.50
2014,11,18,05,20,1.50
2014,11,18,05,21,1.50
2014,11,18,05,22,1.40
2014,11,18,05,23,1.40
2014,11,18,05,24,1.40
2014,11,18,05,25,1.40
2014,11,18,05,26,1.30
2014,11,18,05,27,1.40
2014,11,18,05,28,1.40
2014,11,18,05,29,1.50
2014,11,18,05,30,1.50
2014,11,18,05,31,1.60
2014,11,18,05,32,1.60
2014,11,18,05,33,1.60
2014,11,18,05,34,1.70
2014,11,18,05,35,1.70
2014,11,18,05,36,1.70
2014,11,18,05,37,1.80
2014,11,18,05,38,1.80
2014,11,18,05,39,1.80
2014,11,18,05,40,1.80
2014,11,18,05,41,1.80
2014,11,18,05,42,1.70
2014,11,18,05,43,1.70
2014,11,18,05,44,1.70
2014,11,18,05,45,1.70
2014,11,18,05,46,1.70
2014,11,18,05,47,1.70
2014,11,18,05,48,1.80
2014,11,18,05,49,1.80
2014,11,18,05,50,1.90
2014,11,18,05,51,1.90
2014,11,18,05,52,1.90
2014,11,18,05,53,1.80
2014,11,18,05,54,1.80
2014,11,18,05,55,1.80
2014,11,18,05,56,1.90
2014,11,18,05,57,1.90
2014,11,18,05,58,1.90
2014,11,18,05,59,2.00
2014,11,18,06,00,2.00
2014,11,18,06,01,2.00
2014,11,18,06,02,2.00
2014,11,18,06,03,2.00
2014,11,18,06,04,2.10
2014,11,18,06,05,2.10
2014,11,18,06,06,2.20
2014,11,18,06,07,2.20
2014,11,18,06,08,2.20
2014,11,18,06,09,2.20
2014,11,18,06,10,2.10
2014,11,18,06,11,2.10
2014,11,18,06,12,2.00
2014,11,18,06,13,2.00
2014,11,18,06,14,2.00
2014,11,18,06,15,2.00
2014,11,18,06,16,2.00
2014,11,18,06,17,2.10
2014,11,18,06,18,2.10
2014,11,18,06,19,2.10
2014,11,18,06,20,2.20
2014,11,18,06,21,2.20
2014,11,18,06,22,2.20
2014,11,18,06,23,2.20
2014,11,18,06,24,2.20
2014,11,18,06,25,2.20
2014,11,18,06,26,2.30
2014,11,18,06,27,2.30
2014,11,18,06,28,2.30
2014,11,18,06,29,2.30
2014,11,18,06,30,2.30
2014,11,18,06,31,2.30
2014,11,18,06,32,2.30
2014,11,18,06,33,2.30
2014,11,18,06,34,2.30
2014,11,18,06,35,2.30
2014,11,18,06,36,2.30
2014,11,18,06,37,2.30
2014,11,18,06,38,2.40
2014,11,18,06,39,2.40
2014,11,18,06,40,2.40
2014,11,18,06,41,2.40
2014,11,18,06,42,2.40
2014,11,18,06,43,2.40
2014,11,18,06,44,2.40
2014,11,18,06,45,2.40
2014,11,18,06,46,2.40
2014,11,18,06,47,2.40
2014,11,18,06,48,2.40
2014,11,18,06,49,2.40
2014,11,18,06,50,2.30
2014,11,18,06,51,2.30
2014,11,18,06,52,2.30
2014,11,18,06,53,2.30
2014,11,18,06,54,2.20
2014,11,18,06,55,2.20
2014,11,18,06,56,2.20
2014,11,18,06,57,2.10
2014,11,18,06,58,2.10
2014,11,18,06,59,2.10
2014,11,18,07,00,2.00
2014,11,18,07,01,2.00
2014,11,18,07,02,2.00
2014,11,18,07,03,2.00
2014,11,18,07,04,1.90
2014,11,18,07,05,1.90
2014,11,18,07,06,1.90
2014,11,18,07,07,1.90
2014,11,18,07,08,1.90
2014,11,18,07,09,1.90
2014,11,18,07,10,1.90
2014,11,18,07,11,1.90
2014,11,18,07,12,1.90
2014,11,18,07,13,1.90
2014,11,18,07,14,2.00
2014,11,18,07,15,2.00
2014,11,18,07,16,2.00
2014,11,18,07,17,2.10
2014,11,18,07,18,2.10
2014,11,18,07,19,2.20
2014,11,18,07,20,2.20
2014,11,18,07,21,2.30
2014,11,18,07,22,2.30
2014,11,18,07,23,2.30
2014,11,18,07,24,2.30
2014,11,18,07,25,2.40
2014,11,18,07,26,2.40
2014,11,18,07,27,2.40
2014,11,18,07,28,2.40
2014,11,18,07,29,2.50
2014,11,18,07,30,2.50
2014,11,18,07,31,2.60
2014,11,18,07,32,2.60
2014,11,18,07,33,2.60
2014,11,18,07,34,2.60
2014,11,18,07,35,2.60
2014,11,18,07,36,2.60
2014,11,18,07,37,2.70
2014,11,18,07,38,2.70
2014,11,18,07,39,2.70
2014,11,18,07,40,2.70
2014,11,18,07,41,2.70
2014,11,18,07,42,2.70
2014,11,18,07,43,2.70
2014,11,18,07,44,2.70
2014,11,18,07,45,2.70
2014,11,18,07,46,2.70
2014,11,18,07,47,2.60
2014,11,18,07,48,2.60
2014,11,18,07,49,2.60
2014,11,18,07,50,2.60
2014,11,18,07,51,2.60
2014,11,18,07,52,2.60
2014,11,18,07,53,2.70
2014,11,18,07,54,2.70
2014,11,18,07,55,2.70
2014,11,18,07,56,2.70
2014,11,18,07,57,2.70
2014,11,18,07,58,2.70
2014,11,18,07,59,2.60
2014,11,18,08,00,2.60
2014,11,18,08,01,2.60
2014,11,18,08,02,2.60
2014,11,18,08,03,2.60
2014,11,18,08,04,2.70
2014,11,18,08,05,2.70
2014,11,18,08,06,2.70
2014,11,18,08,07,2.70
2014,11,18,08,08,2.70
2014,11,18,08,09,2.70
2014,11,18,08,10,2.70
2014,11,18,08,11,2.70
2014,11,18,08,12,2.80
2014,11,18,08,13,2.80
2014,11,18,08,14,2.90
2014,11,18,08,15,2.90
2014,11,18,08,16,2.90
2014,11,18,08,17,3.00
2014,11,18,08,18,3.00
2014,11,18,08,19,3.00
2014,11,18,08,20,3.00
2014,11,18,08,21,3.00
2014,11,18,08,22,3.00
2014,11,18,08,23,3.00
2014,11,18,08,24,3.00
2014,11,18,08,25,3.00
2014,11,18,08,26,3.00
2014,11,18,08,27,3.10
2014,11,18,08,28,3.10
2014,11,18,08,29,3.10
2014,11,18,08,30,3.10
2014,11,18,08,31,3.10
2014,11,18,08,32,3.10
2014,11,18,08,33,3.10
2014,11,18,08,34,3.10
2014,11,18,08,35,3.10
2014,11,18,08,36,3.10
2014,11,18,08,37,3.10
2014,11,18,08,38,3.10
2014,11,18,08,39,3.10
2014,11,18,08,40,3.20
2014,11,18,08,41,3.20
2014,11,18,08,42,3.20
2014,11,18,08,43,3.20
2014,11,18,08,44,3.20
2014,11,18,08,45,3.20
2014,11,18,08,46,3.20
2014,11,18,08,47,3.20
2014,11,18,08,48,3.20
2014,11,18,08,49,3.20
2014,11,18,08,50,3.20
2014,11,18,08,51,3.20
2014,11,18,08,52,3.20
2014,11,18,08,53,3.20
2014,11,18,08,54,3.20
2014,11,18,08,55,3.30
2014,11,18,08,56,3.30
2014,11,18,08,57,3.30
2014,11,18,08,58,3.30
2014,11,18,08,59,3.30
2014,11,18,09,00,3.30
2014,11,18,09,01,3.40
2014,11,18,09,02,3.40
2014,11,18,09,03,3.40
2014,11,18,09,04,3.50
2014,11,18,09,05,3.50
2014,11,18,09,06,3.50
2014,11,18,09,07,3.60
2014,11,18,09,08,3.60
2014,11,18,09,09,3.60
2014,11,18,09,10,3.70
2014,11,18,09,11,3.70
2014,11,18,09,12,3.70
2014,11,18,09,13,3.70
2014,11,18,09,14,3.70
2014,11,18,09,15,3.80
2014,11,18,09,16,3.80
2014,11,18,09,17,3.80
2014,11,18,09,18,3.80
2014,11,18,09,19,3.80
2014,11,18,09,20,3.90
2014,11,18,09,21,3.90
2014,11,18,09,22,3.90
2014,11,18,09,23,3.90
2014,11,18,09,24,3.90
2014,11,18,09,25,3.90
2014,11,18,09,26,4.00
2014,11,18,09,27,3.90
2014,11,18,09,28,3.90
2014,11,18,09,29,3.90
2014,11,18,09,30,4.00
2014,11,18,09,31,4.00
2014,11,18,09,32,4.00
2014,11,18,09,33,4.00
2014,11,18,09,34,4.00
2014,11,18,09,35,4.00
2014,11,18,09,36,4.10
2014,11,18,09,37,4.10
2014,11,18,09,38,4.10
2014,11,18,09,39,4.20
2014,11,18,09,40,4.20
2014,11,18,09,41,4.20
2014,11,18,09,42,4.20
2014,11,18,09,43,4.30
2014,11,18,09,44,4.30
2014,11,18,09,45,4.30
2014,11,18,09,46,4.30
2014,11,18,09,47,4.40
2014,11,18,09,48,4.40
2014,11,18,09,49,4.40
2014,11,18,09,50,4.50
2014,11,18,09,51,4.50
2014,11,18,09,52,4.50
2014,11,18,09,53,4.50
2014,11,18,09,54,4.60
2014,11,18,09,55,4.60
2014,11,18,09,56,4.60
2014,11,18,09,57,4.60
2014,11,18,09,58,4.60
2014,11,18,09,59,4.70
2014,11,18,10,00,4.70
2014,11,18,10,01,4.70
2014,11,18,10,02,4.70
2014,11,18,10,03,4.80
2014,11,18,10,04,4.80
2014,11,18,10,05,4.80
2014,11,18,10,06,4.80
2014,11,18,10,07,4.80
2014,11,18,10,08,4.90
2014,11,18,10,09,4.90
2014,11,18,10,10,4.90
2014,11,18,10,11,4.90
2014,11,18,10,12,4.90
2014,11,18,10,13,5.00
2014,11,18,10,14,5.00
2014,11,18,10,15,5.00
2014,11,18,10,16,5.00
2014,11,18,10,17,5.00
2014,11,18,10,18,5.10
2014,11,18,10,19,5.10
2014,11,18,10,20,5.10
2014,11,18,10,21,5.20
2014,11,18,10,22,5.20
2014,11,18,10,23,5.20
2014,11,18,10,24,5.20
2014,11,18,10,25,5.20
2014,11,18,10,26,5.20
2014,11,18,10,27,5.30
2014,11,18,10,28,5.30
2014,11,18,10,29,5.30
2014,11,18,10,30,5.30
2014,11,18,10,31,5.40
2014,11,18,10,32,5.40
2014,11,18,10,33,5.40
2014,11,18,10,34,5.40
2014,11,18,10,35,5.40
2014,11,18,10,36,5.50
2014,11,18,10,37,5.50
2014,11,18,10,38,5.50
2014,11,18,10,39,5.50
2014,11,18,10,40,5.60
2014,11,18,10,41,5.60
2014,11,18,10,42,5.60
2014,11,18,10,43,5.60
2014,11,18,10,44,5.60
2014,11,18,10,45,5.60
2014,11,18,10,46,5.70
2014,11,18,10,47,5.70
2014,11,18,10,48,5.70
2014,11,18,10,49,5.70
2014,11,18,10,50,5.80
2014,11,18,10,51,5.80
2014,11,18,10,52,5.80
2014,11,18,10,53,5.80
2014,11,18,10,54,5.90
2014,11,18,10,55,5.90
2014,11,18,10,56,5.90
2014,11,18,10,57,6.00
2014,11,18,10,58,6.00
2014,11,18,10,59,6.10
2014,11,18,11,00,6.10
2014,11,18,11,01,6.10
2014,11,18,11,02,6.20
2014,11,18,11,03,6.20
2014,11,18,11,04,6.20
2014,11,18,11,05,6.30
2014,11,18,11,06,6.30
2014,11,18,11,07,6.30
2014,11,18,11,08,6.30
2014,11,18,11,09,6.30
2014,11,18,11,10,6.30
2014,11,18,11,11,6.20
2014,11,18,11,12,6.20
2014,11,18,11,13,6.20
2014,11,18,11,14,6.20
2014,11,18,11,15,6.30
2014,11,18,11,16,6.30
2014,11,18,11,17,6.30
2014,11,18,11,18,6.40
2014,11,18,11,19,6.40
2014,11,18,11,20,6.40
2014,11,18,11,21,6.40
2014,11,18,11,22,6.40
2014,11,18,11,23,6.40
2014,11,18,11,24,6.40
2014,11,18,11,25,6.40
2014,11,18,11,26,6.40
2014,11,18,11,27,6.50
2014,11,18,11,28,6.50
2014,11,18,11,29,6.60
2014,11,18,11,30,6.70
2014,11,18,11,31,6.80
2014,11,18,11,32,6.80
2014,11,18,11,33,6.90
2014,11,18,11,34,6.90
2014,11,18,11,35,6.90
2014,11,18,11,36,6.90
2014,11,18,11,37,6.90
2014,11,18,11,38,6.90
2014,11,18,11,39,6.90
2014,11,18,11,40,6.80
2014,11,18,11,41,6.80
2014,11,18,11,42,6.80
2014,11,18,11,43,6.80
2014,11,18,11,44,6.70
2014,11,18,11,45,6.70
2014,11,18,11,46,6.70
2014,11,18,11,47,6.70
2014,11,18,11,48,6.70
2014,11,18,11,49,6.70
2014,11,18,11,50,6.70
2014,11,18,11,51,6.80
2014,11,18,11,52,6.80
2014,11,18,11,53,6.80
2014,11,18,11,54,6.80
2014,11,18,11,55,6.80
2014,11,18,11,56,6.80
2014,11,18,11,57,6.70
2014,11,18,11,58,6.80
2014,11,18,11,59,6.80
2014,11,18,12,00,6.80
2014,11,18,12,01,6.80
2014,11,18,12,02,6.80
2014,11,18,12,03,6.80
2014,11,18,12,04,6.90
2014,11,18,12,05,6.90
2014,11,18,12,06,6.90
2014,11,18,12,07,7.00
2014,11,18,12,08,7.00
2014,11,18,12,09,7.00
2014,11,18,12,10,7.00
2014,11,18,12,11,7.00
2014,11,18,12,12,7.00
2014,11,18,12,13,7.00
2014,11,18,12,14,7.00
2014,11,18,12,15,7.00
2014,11,18,12,16,7.00
2014,11,18,12,17,7.00
2014,11,18,12,18,7.00
2014,11,18,12,19,7.00
2014,11,18,12,20,6.90
2014,11,18,12,21,6.90
2014,11,18,12,22,6.90
2014,11,18,12,23,6.90
2014,11,18,12,24,6.80
2014,11,18,12,25,6.80
2014,11,18,12,26,6.80
2014,11,18,12,27,6.80
2014,11,18,12,28,6.80
2014,11,18,12,29,6.80
2014,11,18,12,30,6.80
2014,11,18,12,31,6.80
2014,11,18,12,32,6.80
2014,11,18,12,33,6.90
2014,11,18,12,34,6.90
2014,11,18,12,35,6.90
2014,11,18,12,36,7.00
2014,11,18,12,37,7.00
2014,11,18,12,38,7.00
2014,11,18,12,39,7.10
2014,11,18,12,40,7.10
2014,11,18,12,41,7.10
2014,11,18,12,42,7.00
2014,11,18,12,43,7.00
2014,11,18,12,44,6.90
2014,11,18,12,45,6.90
2014,11,18,12,46,6.90
2014,11,18,12,47,6.80
2014,11,18,12,48,6.80
2014,11,18,12,49,6.80
2014,11,18,12,50,6.80
2014,11,18,12,51,6.80
2014,11,18,12,52,6.80
2014,11,18,12,53,6.70
2014,11,18,12,54,6.70
2014,11,18,12,55,6.70
2014,11,18,12,56,6.70
2014,11,18,12,57,6.80
2014,11,18,12,58,6.80
2014,11,18,12,59,6.80
2014,11,18,13,00,6.80
2014,11,18,13,01,6.80
2014,11,18,13,02,6.80
2014,11,18,13,03,6.90
2014,11,18,13,04,6.90
2014,11,18,13,05,6.90
2014,11,18,13,06,6.90
2014,11,18,13,07,6.90
2014,11,18,13,08,7.00
2014,11,18,13,09,7.00
2014,11,18,13,10,7.00
2014,11,18,13,11,7.00
2014,11,18,13,12,7.00
2014,11,18,13,13,7.00
2014,11,18,13,14,7.10
2014,11,18,13,15,7.10
2014,11,18,13,16,7.10
2014,11,18,13,17,7.10
2014,11,18,13,18,7.10
2014,11,18,13,19,7.20
2014,11,18,13,20,7.20
2014,11,18,13,21,7.20
2014,11,18,13,22,7.20
2014,11,18,13,23,7.20
2014,11,18,13,24,7.30
2014,11,18,13,25,7.30
2014,11,18,13,26,7.30
2014,11,18,13,27,7.30
2014,11,18,13,28,7.30
2014,11,18,13,29,7.30
2014,11,18,13,30,7.30
2014,11,18,13,31,7.30
2014,11,18,13,32,7.20
2014,11,18,13,33,7.20
2014,11,18,13,34,7.20
2014,11,18,13,35,7.20
2014,11,18,13,36,7.30
2014,11,18,13,37,7.30
2014,11,18,13,38,7.30
2014,11,18,13,39,7.30
2014,11,18,13,40,7.30
2014,11,18,13,41,7.30
2014,11,18,13,42,7.30
2014,11,18,13,43,7.30
2014,11,18,13,44,7.30
2014,11,18,13,45,7.30
2014,11,18,13,46,7.20
2014,11,18,13,47,7.20
2014,11,18,13,48,7.20
2014,11,18,13,49,7.20
2014,11,18,13,50,7.20
2014,11,18,13,51,7.20
2014,11,18,13,52,7.20
2014,11,18,13,53,7.20
2014,11,18,13,54,7.20
2014,11,18,13,55,7.20
2014,11,18,13,56,7.20
2014,11,18,13,57,7.20
2014,11,18,13,58,7.20
2014,11,18,13,59,7.20
2014,11,18,14,00,7.20
2014,11,18,14,01,7.10
2014,11,18,14,02,7.10
2014,11,18,14,03,7.10
2014,11,18,14,04,7.10
2014,11,18,14,05,7.00
2014,11,18,14,06,7.00
2014,11,18,14,07,6.90
2014,11,18,14,08,6.90
2014,11,18,14,09,6.90
2014,11,18,14,10,6.80
2014,11,18,14,11,6.80
2014,11,18,14,12,6.80
2014,11,18,14,13,6.80
2014,11,18,14,14,6.70
2014,11,18,14,15,6.70
2014,11,18,14,16,6.60
2014,11,18,14,17,6.60
2014,11,18,14,18,6.60
2014,11,18,14,19,6.50
2014,11,18,14,20,6.50
2014,11,18,14,21,6.40
2014,11,18,14,22,6.40
2014,11,18,14,23,6.40
2014,11,18,14,24,6.40
2014,11,18,14,25,6.40
2014,11,18,14,26,6.40
2014,11,18,14,27,6.40
2014,11,18,14,28,6.30
2014,11,18,14,29,6.30
2014,11,18,14,30,6.30
2014,11,18,14,31,6.30
2014,11,18,14,32,6.30
2014,11,18,14,33,6.30
2014,11,18,14,34,6.30
2014,11,18,14,35,6.30
2014,11,18,14,36,6.30
2014,11,18,14,37,6.30
2014,11,18,14,38,6.30
2014,11,18,14,39,6.30
2014,11,18,14,40,6.30
2014,11,18,14,41,6.30
2014,11,18,14,42,6.30
2014,11,18,14,43,6.30
2014,11,18,14,44,6.30
2014,11,18,14,45,6.30
2014,11,18,14,46,6.30
2014,11,18,14,47,6.40
2014,11,18,14,48,6.40
2014,11,18,14,49,6.40
2014,11,18,14,50,6.50
2014,11,18,14,51,6.50
2014,11,18,14,52,6.40
2014,11,18,14,53,6.40
2014,11,18,14,54,6.40
2014,11,18,14,55,6.40
2014,11,18,14,56,6.40
2014,11,18,14,57,6.30
2014,11,18,14,58,6.30
2014,11,18,14,59,6.30
2014,11,18,15,00,6.30
2014,11,18,15,01,6.20
2014,11,18,15,02,6.20
2014,11,18,15,03,6.20
2014,11,18,15,04,6.20
2014,11,18,15,05,6.20
2014,11,18,15,06,6.20
2014,11,18,15,07,6.20
2014,11,18,15,08,6.20
2014,11,18,15,09,6.20
2014,11,18,15,10,6.20
2014,11,18,15,11,6.20
2014,11,18,15,12,6.20
2014,11,18,15,13,6.20
2014,11,18,15,14,6.20
2014,11,18,15,15,6.20
2014,11,18,15,16,6.20
2014,11,18,15,17,6.20
2014,11,18,15,18,6.20
2014,11,18,15,19,6.20
2014,11,18,15,20,6.20
2014,11,18,15,21,6.20
2014,11,18,15,22,6.20
2014,11,18,15,23,6.20
2014,11,18,15,24,6.20
2014,11,18,15,25,6.20
2014,11,18,15,26,6.20
2014,11,18,15,27,6.20
2014,11,18,15,28,6.20
2014,11,18,15,29,6.20
2014,11,18,15,30,6.20
2014,11,18,15,31,6.20
2014,11,18,15,32,6.20
2014,11,18,15,33,6.20
2014,11,18,15,34,6.20
2014,11,18,15,35,6.20
2014,11,18,15,36,6.30
2014,11,18,15,37,6.30
2014,11,18,15,38,6.30
2014,11,18,15,39,6.30
2014,11,18,15,40,6.30
2014,11,18,15,41,6.30
2014,11,18,15,42,6.30
2014,11,18,15,43,6.20
2014,11,18,15,44,6.20
2014,11,18,15,45,6.20
2014,11,18,15,46,6.20
2014,11,18,15,47,6.20
2014,11,18,15,48,6.20
2014,11,18,15,49,6.20
2014,11,18,15,50,6.20
2014,11,18,15,51,6.20
2014,11,18,15,52,6.20
2014,11,18,15,53,6.20
2014,11,18,15,54,6.20
2014,11,18,15,55,6.20
2014,11,18,15,56,6.20
2014,11,18,15,57,6.20
2014,11,18,15,58,6.10
2014,11,18,15,59,6.10
2014,11,18,16,00,6.10
2014,11,18,16,01,6.10
2014,11,18,16,02,6.10
2014,11,18,16,03,6.10
2014,11,18,16,04,6.10
2014,11,18,16,05,6.10
2014,11,18,16,06,6.00
2014,11,18,16,07,6.00
2014,11,18,16,08,6.00
2014,11,18,16,09,6.00
2014,11,18,16,10,6.00
2014,11,18,16,11,6.00
2014,11,18,16,12,5.90
2014,11,18,16,13,5.90
2014,11,18,16,14,5.90
2014,11,18,16,15,5.90
2014,11,18,16,16,5.90
2014,11,18,16,17,5.90
2014,11,18,16,18,5.80
2014,11,18,16,19,5.80
2014,11,18,16,20,5.80
2014,11,18,16,21,5.80
2014,11,18,16,22,5.80
2014,11,18,16,23,5.80
2014,11,18,16,24,5.70
2014,11,18,16,25,5.70
2014,11,18,16,26,5.70
2014,11,18,16,27,5.70
2014,11,18,16,28,5.70
2014,11,18,16,29,5.60
2014,11,18,16,30,5.60
2014,11,18,16,31,5.60
2014,11,18,16,32,5.60
2014,11,18,16,33,5.50
2014,11,18,16,34,5.50
2014,11,18,16,35,5.40
2014,11,18,16,36,5.40
2014,11,18,16,37,5.30
2014,11,18,16,38,5.20
2014,11,18,16,39,5.20
2014,11,18,16,40,5.10
2014,11,18,16,41,5.10
2014,11,18,16,42,5.00
2014,11,18,16,43,5.00
2014,11,18,16,44,5.00
2014,11,18,16,45,4.90
2014,11,18,16,46,4.90
2014,11,18,16,47,4.90
2014,11,18,16,48,4.90
2014,11,18,16,49,4.80
2014,11,18,16,50,4.80
2014,11,18,16,51,4.80
2014,11,18,16,52,4.70
2014,11,18,16,53,4.70
2014,11,18,16,54,4.70
2014,11,18,16,55,4.60
2014,11,18,16,56,4.60
2014,11,18,16,57,4.60
2014,11,18,16,58,4.60
2014,11,18,16,59,4.60
2014,11,18,17,00,4.60
2014,11,18,17,01,4.50
2014,11,18,17,02,4.50
2014,11,18,17,03,4.40
2014,11,18,17,04,4.40
2014,11,18,17,05,4.30
2014,11,18,17,06,4.30
2014,11,18,17,07,4.30
2014,11,18,17,08,4.30
2014,11,18,17,09,4.20
2014,11,18,17,10,4.20
2014,11,18,17,11,4.20
2014,11,18,17,12,4.20
2014,11,18,17,13,4.20
2014,11,18,17,14,4.20
2014,11,18,17,15,4.20
2014,11,18,17,16,4.10
2014,11,18,17,17,4.10
2014,11,18,17,18,4.10
2014,11,18,17,19,4.10
2014,11,18,17,20,4.00
2014,11,18,17,21,4.00
2014,11,18,17,22,3.90
2014,11,18,17,23,3.90
2014,11,18,17,24,3.80
2014,11,18,17,25,3.80
2014,11,18,17,26,3.80
2014,11,18,17,27,3.80
2014,11,18,17,28,3.80
2014,11,18,17,29,3.80
2014,11,18,17,30,3.80
2014,11,18,17,31,3.80
2014,11,18,17,32,3.80
2014,11,18,17,33,3.80
2014,11,18,17,34,3.80
2014,11,18,17,35,3.80
2014,11,18,17,36,3.70
2014,11,18,17,37,3.70
2014,11,18,17,38,3.70
2014,11,18,17,39,3.70
2014,11,18,17,40,3.70
2014,11,18,17,41,3.70
2014,11,18,17,42,3.70
2014,11,18,17,43,3.70
2014,11,18,17,44,3.70
2014,11,18,17,45,3.70
2014,11,18,17,46,3.70
2014,11,18,17,47,3.70
2014,11,18,17,48,3.70
2014,11,18,17,49,3.70
2014,11,18,17,50,3.70
2014,11,18,17,51,3.70
2014,11,18,17,52,3.70
2014,11,18,17,53,3.60
2014,11,18,17,54,3.60
2014,11,18,17,55,3.60
2014,11,18,17,56,3.60
2014,11,18,17,57,3.60
2014,11,18,17,58,3.50
2014,11,18,17,59,3.50
2014,11,18,18,00,3.50